Back to catalog

ATLAS AGENA D R/B

AliveLEO
NORAD 2144·ROCKET BODY·🇺🇸 United States

Launched Apr 8, 1966 from Cape Canaveral Space Force Station

Loading…

Next Passes (next 24 hours)

TLE

FreshSource: Space-Track

Epoch: Sep 14, 2026, 13:09 UTC

1 02144U 66031B   26257.54849891  .00000240  00000-0  73467-4 0  9994
2 02144  35.0409 203.0367 0007723   4.4834 355.5925 14.44996520175705

Track ATLAS AGENA D R/B in real time with AllMySat

Download on the App Store